EW2895 Weather Reports


Display with metric or nautical units.
time (UTC)temp
F
wind
direction
speed
MPH
gust
MPH
rain 1hr
in
rain 24hr
in
rain mn
in
humidity
%
barometer
mb
20260906043827 75 339 1.0 6.0 0.00 0.00 0.00 83 1010.5
20260906043327 75 13 0.0 5.0 0.00 0.00 0.00 83 1010.5
20260906042825 75 13 1.0 7.0 0.00 0.00 0.00 83 1010.4
20260906042306 75 12 1.0 7.0 0.00 0.00 0.00 83 1010.4
20260906041753 76 13 0.0 5.0 0.00 0.00 0.00 82 1010.4
20260906041748 75 13 0.0 3.0 0.00 0.00 0.00 83 1010.4
20260906041246 76 13 0.0 4.0 0.00 0.00 0.00 82 1010.4
20260906040243 76 13 0.0 5.0 0.00 0.00 0.00 82 1010.4
20260906035736 76 8 0.0 7.0 0.00 0.00 0.00 82 1010.4
20260906035236 76 345 0.0 6.0 0.00 0.00 0.00 82 1010.4
20260906034742 76 28 1.0 8.0 0.00 0.00 0.00 81 1010.1
20260906034737 76 58 1.0 8.0 0.00 0.00 0.00 81 1010.4
20260906033727 76 48 1.0 7.0 0.00 0.00 0.00 81 1010.1
20260906033224 76 10 1.0 7.0 0.00 0.00 0.00 80 1010.1
20260906032717 76 72 1.0 7.0 0.00 0.00 0.00 80 1010.2
20260906032208 77 70 1.0 8.0 0.00 0.00 0.00 80 1010.2
20260906031712 77 64 1.0 7.0 0.00 0.00 0.00 80 1010.1
20260906031708 77 58 0.0 8.0 0.00 0.00 0.00 80 1010.2
20260906030701 77 64 1.0 7.0 0.00 0.00 0.00 80 1010.1
20260906030152 78 28 1.0 7.0 0.00 0.00 0.00 80 1010.1
20260906025652 78 45 1.0 8.0 0.00 0.00 0.00 80 1010.0
20260906025149 78 50 1.0 8.0 0.00 0.00 0.00 80 1010.0
20260906024650 78 62 0.0 7.0 0.00 0.00 0.00 80 1010.0
20260906024149 78 10 1.0 8.0 0.00 0.00 0.00 79 1009.9
20260906023646 78 64 1.0 8.0 0.00 0.00 0.00 79 1009.9
20260906023146 79 355 1.0 7.0 0.00 0.00 0.00 79 1009.9
20260906022642 79 337 1.0 6.0 0.00 0.00 0.00 78 1009.7
20260906022245 79 331 0.0 2.0 0.00 0.00 0.00 75 1009.6
20260906022141 79 56 1.0 5.0 0.00 0.00 0.00 77 1009.7
20260906022135 79 343 1.0 7.0 0.00 0.00 0.00 76 1009.6
20260906021740 79 60 1.0 7.0 0.00 0.00 0.00 76 1009.7
20260906020125 79 331 0.0 5.0 0.00 0.00 0.00 76 1009.6
20260906015626 79 331 1.0 6.0 0.00 0.00 0.00 76 1009.2
20260906015045 78 331 0.0 6.0 0.00 0.00 0.00 76 1009.2
20260906014546 78 39 0.0 1.0 0.00 0.00 0.00 76 1009.0
20260906014046 78 39 0.0 1.0 0.00 0.00 0.00 76 1009.0
20260906013530 79 39 0.0 0.0 0.00 0.00 0.00 75 1009.0
20260906013029 79 39 0.0 0.0 0.00 0.00 0.00 75 1008.7
20260906012506 79 39 0.0 0.0 0.00 0.00 0.00 74 1008.7
20260906011956 79 39 0.0 0.0 0.00 0.00 0.00 74 1008.7
20260906011450 79 39 0.0 0.0 0.00 0.00 0.00 74 1008.8
20260906010940 79 39 0.0 3.0 0.00 0.00 0.00 73 1008.8
20260906010421 79 39 0.0 3.0 0.00 0.00 0.00 73 1008.8
20260906010415 79 39 0.0 1.0 0.00 0.00 0.00 72 1008.6
20260906005413 80 39 0.0 1.0 0.00 0.00 0.00 72 1008.6
20260906004910 80 39 0.0 0.0 0.00 0.00 0.00 71 1008.6
20260906004358 80 39 0.0 0.0 0.00 0.00 0.00 71 1008.4
20260906004343 80 39 0.0 0.0 0.00 0.00 0.00 70 1008.4
20260906003249 80 39 0.0 0.0 0.00 0.00 0.00 69 1008.4
20260906002719 81 39 0.0 0.0 0.00 0.00 0.00 69 1008.2
20260906002212 81 39 0.0 0.0 0.00 0.00 0.00 68 1008.2
20260906001653 81 39 0.0 0.0 0.00 0.00 0.00 67 1008.2
20260906001646 82 39 0.0 0.0 0.00 0.00 0.00 67 1008.3
20260906000631 82 39 0.0 0.0 0.00 0.00 0.00 66 1008.3
20260906000053 82 39 0.0 0.0 0.00 0.00 0.00 66 1008.5
20260905235550 83 39 0.0 2.0 0.00 0.00 0.00 65 1008.5
20260905235049 83 39 0.0 2.0 0.00 0.00 0.00 65 1008.5
20260905234540 83 39 0.0 1.0 0.00 0.00 0.00 64 1008.4
20260905234027 83 39 0.0 3.0 0.00 0.00 0.00 65 1008.4
20260905233520 83 39 0.0 4.0 0.00 0.00 0.00 64 1008.4
20260905233000 84 260 0.0 1.0 0.00 0.00 0.00 66 1008.4
20260905232457 84 260 0.0 1.0 0.00 0.00 0.00 64 1008.4
20260905231957 84 260 0.0 1.0 0.00 0.00 0.00 62 1008.4
20260905231450 85 260 0.0 1.0 0.00 0.00 0.00 61 1008.1
20260905231444 85 260 0.0 0.0 0.00 0.00 0.00 60 1008.1
20260905230435 85 260 0.0 0.0 0.00 0.00 0.00 60 1008.1
20260905225930 85 260 0.0 1.0 0.00 0.00 0.00 58 1007.9
20260905225405 85 260 0.0 1.0 0.00 0.00 0.00 56 1007.9
20260905224906 85 260 0.0 2.0 0.00 0.00 0.00 56 1007.9
20260905224406 85 260 0.0 2.0 0.00 0.00 0.00 55 1007.8
20260905223852 86 210 0.0 5.0 0.00 0.00 0.00 54 1007.8
20260905223349 86 180 0.0 5.0 0.00 0.00 0.00 54 1007.8
20260905222851 86 321 0.0 5.0 0.00 0.00 0.00 56 1007.8
20260905222836 86 320 1.0 5.0 0.00 0.00 0.00 57 1007.8
20260905222440 86 318 1.0 5.0 0.00 0.00 0.00 58 1007.8
20260905221311 86 329 0.0 7.0 0.00 0.00 0.00 62 1007.7
20260905220757 86 289 0.0 7.0 0.00 0.00 0.00 63 1007.7
20260905220257 86 281 0.0 3.0 0.00 0.00 0.00 65 1007.3
20260905220253 87 244 0.0 3.0 0.00 0.00 0.00 64 1007.7
20260905215744 86 281 0.0 3.0 0.00 0.00 0.00 64 1007.3
20260905214235 86 281 0.0 0.0 0.00 0.00 0.00 64 1007.8
20260905213734 87 281 0.0 0.0 0.00 0.00 0.00 62 1007.8
20260905213729 87 281 0.0 0.0 0.00 0.00 0.00 64 1007.8
20260905213216 87 281 0.0 0.0 0.00 0.00 0.00 61 1007.8
20260905212205 87 281 0.0 0.0 0.00 0.00 0.00 60 1007.8
20260905211705 88 281 0.0 1.0 0.00 0.00 0.00 59 1007.8
20260905211204 88 281 0.0 1.0 0.00 0.00 0.00 59 1007.7
20260905211158 88 281 0.0 1.0 0.00 0.00 0.00 57 1007.7
20260905210135 89 281 0.0 1.0 0.00 0.00 0.00 56 1007.7
20260905210130 89 281 0.0 2.0 0.00 0.00 0.00 56 1007.9
20260905205122 90 281 0.0 2.0 0.00 0.00 0.00 55 1007.9
20260905204615 90 281 0.0 6.0 0.00 0.00 0.00 56 1007.9
20260905204105 91 281 0.0 6.0 0.00 0.00 0.00 54 1007.8
20260905203603 91 327 0.0 2.0 0.00 0.00 0.00 53 1007.8
20260905203047 91 327 0.0 7.0 0.00 0.00 0.00 52 1008.1
20260905202542 91 350 1.0 7.0 0.00 0.00 0.00 53 1008.1
20260905202530 91 326 0.0 5.0 0.00 0.00 0.00 52 1008.1
20260905201529 91 326 0.0 3.0 0.00 0.00 0.00 52 1008.2
20260905201021 91 326 0.0 3.0 0.00 0.00 0.00 52 1008.2
20260905200516 91 347 0.0 1.0 0.00 0.00 0.00 51 1008.2
20260905200006 91 347 0.0 1.0 0.00 0.00 0.00 54 1008.2
20260905195457 91 347 0.0 1.0 0.00 0.00 0.00 51 1008.2
20260905194947 91 347 0.0 4.0 0.00 0.00 0.00 51 1008.2
20260905194443 91 347 0.0 4.0 0.00 0.00 0.00 51 1008.3
20260905193936 91 347 1.0 8.0 0.00 0.00 0.00 51 1008.3
20260905193429 91 347 1.0 8.0 0.00 0.00 0.00 51 1008.3
20260905192919 90 219 0.0 1.0 0.00 0.00 0.00 54 1008.4
20260905192854 90 161 0.0 4.0 0.00 0.00 0.00 51 1008.4
20260905191851 91 252 0.0 6.0 0.00 0.00 0.00 51 1008.4
20260905191351 91 220 0.0 6.0 0.00 0.00 0.00 49 1008.7
20260905190848 91 158 0.0 1.0 0.00 0.00 0.00 51 1008.7
20260905190346 91 153 0.0 4.0 0.00 0.00 0.00 51 1008.7
20260905185845 91 241 1.0 6.0 0.00 0.00 0.00 49 1008.8
20260905185350 90 358 0.0 5.0 0.00 0.00 0.00 51 1008.8
20260905185346 91 254 1.0 6.0 0.00 0.00 0.00 48 1008.8
20260905184832 90 272 0.0 5.0 0.00 0.00 0.00 53 1009.2
20260905183831 90 276 1.0 6.0 0.00 0.00 0.00 51 1009.2
20260905183329 90 276 1.0 7.0 0.00 0.00 0.00 49 1009.2
20260905182829 90 233 0.0 7.0 0.00 0.00 0.00 51 1009.3
20260905182327 89 299 0.0 4.0 0.00 0.00 0.00 50 1009.3
20260905181827 89 296 0.0 4.0 0.00 0.00 0.00 50 1009.3
20260905181311 89 296 0.0 5.0 0.00 0.00 0.00 52 1009.4
20260905180759 89 296 0.0 5.0 0.00 0.00 0.00 53 1009.4
20260905180255 88 326 0.0 6.0 0.00 0.00 0.00 53 1009.4
20260905175749 88 279 0.0 6.0 0.00 0.00 0.00 51 1009.6
20260905175745 88 326 1.0 6.0 0.00 0.00 0.00 51 1009.6
20260905174733 88 318 0.0 1.0 0.00 0.00 0.00 54 1009.6
20260905174231 87 318 0.0 8.0 0.00 0.00 0.00 54 1009.8
20260905173718 87 318 0.0 8.0 0.00 0.00 0.00 52 1009.8
20260905173213 87 231 0.0 1.0 0.00 0.00 0.00 52 1009.8
20260905172705 87 231 0.0 1.0 0.00 0.00 0.00 54 1010.0
20260905172155 87 231 0.0 3.0 0.00 0.00 0.00 54 1010.0
20260905171649 86 231 0.0 3.0 0.00 0.00 0.00 54 1010.0
20260905171146 86 227 0.0 1.0 0.00 0.00 0.00 55 1010.2
20260905170637 86 227 0.0 1.0 0.00 0.00 0.00 55 1010.2
20260905170133 85 227 0.0 1.0 0.00 0.00 0.00 53 1010.2
20260905165627 85 227 0.0 1.0 0.00 0.00 0.00 53 1010.4
20260905165119 85 227 0.0 6.0 0.00 0.00 0.00 55 1010.4
20260905164617 85 108 0.0 6.0 0.00 0.00 0.00 52 1010.4
20260905164601 85 111 0.0 7.0 0.00 0.00 0.00 55 1010.6
20260905163601 85 111 0.0 7.0 0.00 0.00 0.00 54 1010.6
20260905163049 85 104 0.0 1.0 0.00 0.00 0.00 55 1010.6
20260905162549 85 104 0.0 1.0 0.00 0.00 0.00 57 1010.6
20260905162027 85 104 0.0 1.0 0.00 0.00 0.00 56 1010.6
20260905161525 84 104 0.0 1.0 0.00 0.00 0.00 57 1010.6
20260905161521 84 104 0.0 1.0 0.00 0.00 0.00 57 1010.6
20260905160513 84 104 0.0 1.0 0.00 0.00 0.00 57 1010.6
20260905160011 83 104 0.0 1.0 0.00 0.00 0.00 59 1010.6
20260905155501 82 104 0.0 4.0 0.00 0.00 0.00 58 1010.6
20260905155457 82 104 0.0 1.0 0.00 0.00 0.00 57 1010.6
20260905154443 82 104 0.0 4.0 0.00 0.00 0.00 60 1010.7
20260905153926 82 312 0.0 1.0 0.00 0.00 0.00 60 1010.7
20260905153427 82 312 0.0 1.0 0.00 0.00 0.00 62 1010.7
20260905152901 81 312 0.0 1.0 0.00 0.00 0.00 61 1010.9
20260905152356 81 312 0.0 1.0 0.00 0.00 0.00 60 1010.9
20260905151854 81 123 0.0 1.0 0.00 0.00 0.00 61 1010.9
20260905151355 81 123 0.0 1.0 0.00 0.00 0.00 62 1010.8
20260905150839 81 123 0.0 1.0 0.00 0.00 0.00 61 1010.8
20260905150337 81 123 0.0 3.0 0.00 0.00 0.00 61 1010.8
20260905145836 81 123 0.0 5.0 0.00 0.00 0.00 61 1010.9
20260905145319 80 121 0.0 5.0 0.00 0.00 0.00 62 1010.9
20260905145311 80 287 0.0 4.0 0.00 0.00 0.00 63 1011.0
20260905144914 80 287 0.0 3.0 0.00 0.00 0.00 63 1010.9
20260905143754 80 36 0.0 4.0 0.00 0.00 0.00 62 1011.0
20260905143748 80 36 0.0 4.0 0.00 0.00 0.00 62 1011.0
20260905142746 79 217 0.0 2.0 0.00 0.00 0.00 64 1011.2
20260905142739 79 217 0.0 2.0 0.00 0.00 0.00 64 1011.2
20260905141731 78 52 0.0 2.0 0.00 0.00 0.00 64 1011.2
20260905141227 78 106 0.0 6.0 0.00 0.00 0.00 65 1011.3
20260905140716 77 108 0.0 9.0 0.00 0.00 0.00 66 1011.3
20260905140216 77 108 1.0 9.0 0.00 0.00 0.00 66 1011.3
20260905140158 76 211 1.0 6.0 0.00 0.00 0.00 68 1011.3
20260905135157 76 110 0.0 6.0 0.00 0.00 0.00 67 1011.3
20260905134655 76 105 0.0 4.0 0.00 0.00 0.00 69 1011.3
20260905134647 75 270 0.0 4.0 0.00 0.00 0.00 71 1011.3
20260905133637 75 106 0.0 4.0 0.00 0.00 0.00 71 1011.3
20260905133623 74 105 0.0 2.0 0.00 0.00 0.00 72 1011.3
20260905132618 74 105 0.0 2.0 0.00 0.00 0.00 72 1011.5
20260905132105 74 105 0.0 6.0 0.00 0.00 0.00 72 1011.5
20260905131544 74 82 0.0 5.0 0.00 0.00 0.00 72 1011.5
20260905131045 74 87 1.0 6.0 0.00 0.00 0.00 73 1011.5
20260905130544 73 81 1.0 6.0 0.00 0.00 0.00 73 1011.5
20260905130042 73 105 0.0 5.0 0.00 0.00 0.00 74 1011.4
20260905125535 73 101 0.0 6.0 0.00 0.00 0.00 74 1011.4
20260905125034 73 101 0.0 6.0 0.00 0.00 0.00 75 1011.4
20260905124535 73 101 0.0 5.0 0.00 0.00 0.00 75 1011.3
20260905124035 73 110 0.0 4.0 0.00 0.00 0.00 75 1011.3
20260905123534 73 112 0.0 4.0 0.00 0.00 0.00 76 1011.3
20260905123034 72 120 0.0 2.0 0.00 0.00 0.00 76 1011.3
20260905122525 72 120 0.0 2.0 0.00 0.00 0.00 76 1011.3
20260905122025 72 36 0.0 1.0 0.00 0.00 0.00 77 1011.3
20260905121520 72 36 0.0 2.0 0.00 0.00 0.00 77 1011.2
20260905121010 72 36 0.0 5.0 0.00 0.00 0.00 78 1011.2
20260905120510 72 33 0.0 5.0 0.00 0.00 0.00 78 1011.2
20260905115936 72 314 0.0 0.0 0.00 0.00 0.00 77 1011.2
20260905115427 72 314 0.0 6.0 0.00 0.00 0.00 77 1011.2
20260905114914 72 314 1.0 8.0 0.00 0.00 0.00 77 1011.2
20260905114400 72 45 0.0 8.0 0.00 0.00 0.00 77 1010.8
20260905113905 72 33 0.0 6.0 0.00 0.00 0.00 78 1010.8
20260905113901 72 33 0.0 6.0 0.00 0.00 0.00 78 1010.8
20260905112855 73 37 0.0 10.0 0.00 0.00 0.00 79 1010.6
20260905112851 73 38 0.0 10.0 0.00 0.00 0.00 78 1010.6
20260905111847 73 52 1.0 8.0 0.00 0.00 0.00 79 1010.6
20260905111327 73 39 1.0 6.0 0.00 0.00 0.00 81 1010.5
20260905110744 73 38 1.0 15.0 0.00 0.00 0.00 84 1010.5
20260905110236 74 51 1.0 15.0 0.00 0.00 0.00 87 1010.5
20260905105730 75 68 1.0 8.0 0.00 0.00 0.00 91 1009.9
20260905105230 75 33 1.0 9.0 0.00 0.00 0.00 92 1009.9
20260905104654 75 35 1.0 9.0 0.00 0.00 0.00 92 1009.9
20260905104151 75 231 0.0 0.0 0.00 0.00 0.00 92 1009.2
20260905103644 75 231 0.0 0.0 0.00 0.00 0.00 92 1009.2
20260905103140 75 231 0.0 0.0 0.00 0.00 0.00 92 1009.2
20260905102617 75 231 0.0 0.0 0.00 0.00 0.00 92 1009.2
20260905102116 75 231 0.0 0.0 0.00 0.00 0.00 92 1009.2
20260905101557 75 231 0.0 0.0 0.00 0.00 0.00 92 1009.2
20260905101551 75 231 0.0 0.0 0.00 0.00 0.00 92 1009.1
20260905100541 75 231 0.0 0.0 0.00 0.00 0.00 91 1009.1
20260905100026 75 231 0.0 0.0 0.00 0.00 0.00 92 1009.1
20260905095458 75 231 0.0 0.0 0.00 0.00 0.00 91 1009.1
20260905094958 75 231 0.0 0.0 0.00 0.00 0.00 91 1009.1
20260905094444 75 231 0.0 0.0 0.00 0.00 0.00 91 1009.1
20260905093945 75 231 0.0 0.0 0.00 0.00 0.00 91 1009.1
20260905093940 75 231 0.0 0.0 0.00 0.00 0.00 91 1009.1
20260905093358 75 231 0.0 0.0 0.00 0.00 0.00 91 1009.1
20260905093336 75 231 0.0 0.0 0.00 0.00 0.00 91 1009.1
20260905091835 75 231 0.0 0.0 0.00 0.00 0.00 91 1009.1
20260905091323 76 231 0.0 0.0 0.00 0.00 0.00 91 1008.8
20260905091258 76 231 0.0 0.0 0.00 0.00 0.00 91 1008.8
20260905090903 76 231 0.0 0.0 0.00 0.00 0.00 91 1008.8
20260905085756 76 231 0.0 0.0 0.00 0.00 0.00 91 1008.9
20260905085255 76 231 0.0 0.0 0.00 0.00 0.00 91 1008.9
20260905084748 76 231 0.0 0.0 0.00 0.00 0.00 91 1008.9
20260905084246 76 231 0.0 0.0 0.00 0.00 0.00 91 1009.0
20260905083727 76 231 0.0 0.0 0.00 0.00 0.00 90 1009.0
20260905083216 76 231 0.0 0.0 0.00 0.00 0.00 90 1009.0
20260905082716 76 231 0.0 0.0 0.00 0.00 0.00 90 1008.9
20260905082204 76 231 0.0 0.0 0.00 0.00 0.00 90 1008.9
20260905081654 76 231 0.0 0.0 0.00 0.00 0.00 90 1008.9
20260905081159 76 231 0.0 0.0 0.00 0.00 0.00 90 1008.6
20260905081154 76 231 0.0 0.0 0.00 0.00 0.00 90 1008.6
20260905080152 76 231 0.0 0.0 0.00 0.00 0.00 90 1008.6
20260905075640 76 231 0.0 0.0 0.00 0.00 0.00 90 1008.3
20260905075056 76 231 0.0 0.0 0.00 0.00 0.00 90 1008.3
20260905074556 76 231 0.0 0.0 0.00 0.00 0.00 90 1008.3
20260905074542 76 231 0.0 0.0 0.00 0.00 0.00 90 1008.1
20260905074146 76 231 0.0 0.0 0.00 0.00 0.00 90 1008.1
20260905073015 76 231 0.0 0.0 0.00 0.00 0.00 90 1008.3
20260905072516 76 231 0.0 0.0 0.00 0.00 0.00 90 1008.3
20260905071952 76 231 0.0 0.0 0.00 0.00 0.00 90 1008.4
20260905071947 76 231 0.0 0.0 0.00 0.00 0.00 90 1008.3
20260905071550 76 231 0.0 0.0 0.00 0.00 0.00 90 1008.4
20260905070420 76 231 0.0 0.0 0.00 0.00 0.00 89 1008.4
20260905065905 76 231 0.0 0.0 0.00 0.00 0.00 89 1008.6
20260905065400 76 231 0.0 0.0 0.00 0.00 0.00 89 1008.6
20260905064843 76 231 0.0 0.0 0.00 0.00 0.00 89 1008.6
20260905064838 76 231 0.0 0.0 0.00 0.00 0.00 88 1008.7
20260905063746 76 231 0.0 0.0 0.00 0.00 0.00 88 1008.7
20260905063218 76 231 0.0 0.0 0.00 0.00 0.00 88 1008.7
20260905062654 76 231 0.0 0.0 0.00 0.00 0.00 88 1009.1
20260905062153 76 231 0.0 0.0 0.00 0.00 0.00 88 1009.1
20260905061655 76 231 0.0 0.0 0.00 0.00 0.00 87 1009.1
20260905061159 77 231 0.0 0.0 0.00 0.00 0.00 87 1009.2
20260905061154 77 231 0.0 0.0 0.00 0.00 0.00 87 1009.2
20260905060152 77 231 0.0 0.0 0.00 0.00 0.00 87 1009.2
20260905055634 77 231 0.0 0.0 0.00 0.00 0.00 86 1009.3
20260905055130 77 231 0.0 0.0 0.00 0.00 0.00 86 1009.3
20260905054557 77 231 0.0 0.0 0.00 0.00 0.00 86 1009.3
20260905054054 77 231 0.0 0.0 0.00 0.00 0.00 86 1009.6
20260905054050 77 231 0.0 0.0 0.00 0.00 0.00 86 1009.6
20260905053029 77 231 0.0 0.0 0.00 0.00 0.00 86 1009.7
20260905052451 77 231 0.0 0.0 0.00 0.00 0.00 86 1009.7
20260905051947 78 231 0.0 0.0 0.00 0.00 0.00 86 1009.7
20260905051932 78 231 0.0 0.0 0.00 0.00 0.00 85 1009.7
20260905050849 78 231 0.0 0.0 0.00 0.00 0.00 85 1009.7
20260905050347 78 231 0.0 0.0 0.00 0.00 0.00 85 1009.7
20260905050338 78 231 0.0 0.0 0.00 0.00 0.00 85 1009.6
20260905045331 78 231 0.0 0.0 0.00 0.00 0.00 85 1009.6
20260905044822 78 231 0.0 0.0 0.00 0.00 0.00 85 1009.6
20260905044321 78 231 0.0 0.0 0.00 0.00 0.00 85 1009.7